DW9996 Weather Reports


time (UTC)temp
F
wind
direction
speed
knots
gust
knots
rain 1hr
in
rain 24hr
in
rain mn
in
humidity
%
barometer
mb
20260508113051 40 296 0.9 4.3 0.00 0.00 0.00 66 1009.4
20260508111600 41 308 1.7 3.5 0.00 0.00 0.00 65 1009.6
20260508110045 40 308 2.6 4.3 0.00 0.00 0.00 67 1009.6
20260508104545 38 303 2.6 3.5 0.00 0.00 0.00 70 1009.7
20260508103043 37 286 0.9 4.3 0.00 0.00 0.00 70 1009.7
20260508101541 38 294 0.9 2.6 0.00 0.00 0.00 69 1009.7
20260508100038 38 313 1.7 3.5 0.00 0.00 0.00 67 1009.6
20260508094536 38 259 1.7 2.6 0.00 0.00 0.00 66 1009.7
20260508093035 39 259 0.9 2.6 0.00 0.00 0.00 67 1009.6
20260508091538 40 253 0.9 1.7 0.00 0.00 0.00 65 1009.5
20260508090030 41 253 0.9 3.5 0.00 0.00 0.00 65 1009.6
20260508084528 40 234 1.7 5.2 0.00 0.00 0.00 67 1009.6
20260508083025 41 296 1.7 4.3 0.00 0.00 0.00 66 1009.4
20260508081522 43 263 4.3 8.7 0.00 0.00 0.00 65 1009.4
20260508080018 45 301 1.7 4.3 0.00 0.00 0.00 62 1009.2
20260508074518 44 254 0.9 2.6 0.00 0.00 0.00 64 1009.1
20260508073018 45 254 0.9 2.6 0.00 0.00 0.00 64 1009.1
20260508071513 47 311 0.9 3.5 0.00 0.00 0.00 60 1009.0
20260508070010 47 302 0.9 3.5 0.00 0.00 0.00 61 1008.9
20260508064508 47 273 0.9 2.6 0.00 0.00 0.00 63 1008.9
20260508063006 48 265 1.7 3.5 0.00 0.00 0.00 61 1008.9
20260508061505 48 304 1.7 2.6 0.00 0.00 0.00 62 1008.8
20260508060059 50 291 1.7 3.5 0.00 0.00 0.00 59 1008.8
20260508054559 52 298 1.7 6.1 0.00 0.00 0.00 57 1008.8
20260508053106 53 291 1.7 5.2 0.00 0.00 0.00 55 1008.8
20260508051606 54 298 0.9 3.5 0.00 0.00 0.00 55 1008.7
20260508050058 55 300 1.7 3.5 0.00 0.00 0.00 54 1008.8
20260508044607 57 284 2.6 5.2 0.00 0.00 0.00 51 1008.9
20260508043056 58 283 2.6 7.0 0.00 0.00 0.00 48 1008.7
20260508041556 59 275 4.3 9.6 0.00 0.00 0.00 47 1008.6
20260508040056 57 288 4.3 8.7 0.00 0.00 0.00 50 1008.6
20260508034555 56 295 2.6 4.3 0.00 0.00 0.00 51 1008.6
20260508033100 57 288 1.7 3.5 0.00 0.00 0.00 50 1008.5
20260508031556 59 285 1.7 5.2 0.00 0.00 0.00 46 1008.4
20260508030054 61 263 3.5 7.0 0.00 0.00 0.00 44 1008.1
20260508024603 61 309 3.5 6.1 0.00 0.00 0.00 43 1008.1
20260508023055 60 286 1.7 3.5 0.00 0.00 0.00 42 1007.8
20260508021555 62 307 0.9 5.2 0.00 0.00 0.00 36 1007.6
20260508020053 63 304 1.7 3.5 0.00 0.00 0.00 34 1007.3
20260508014552 65 330 2.6 7.8 0.00 0.00 0.00 31 1007.2
20260508013051 66 350 4.3 10.4 0.00 0.00 0.00 30 1007.1
20260508011605 65 346 4.3 7.8 0.00 0.00 0.00 31 1006.9
20260508010049 67 315 3.5 7.8 0.00 0.00 0.00 30 1007.0
20260508004556 69 355 7.0 11.3 0.00 0.00 0.00 27 1006.9
20260508003049 70 317 5.2 9.6 0.00 0.00 0.00 27 1006.9
20260508001551 69 284 6.1 13.9 0.00 0.00 0.00 28 1006.8
20260508000047 69 332 7.8 13.9 0.00 0.00 0.00 27 1007.0
20260507234553 69 323 7.8 12.2 0.00 0.00 0.00 27 1006.9
20260507233047 69 300 6.1 12.2 0.00 0.00 0.00 28 1006.9
20260507231550 70 319 5.2 11.3 0.00 0.00 0.00 29 1006.9
20260507230044 69 313 6.1 12.2 0.00 0.00 0.00 30 1006.9
20260507224544 69 307 6.1 16.5 0.00 0.00 0.00 29 1006.9
20260507223041 69 314 7.0 12.2 0.00 0.00 0.00 29 1007.0
20260507221539 69 323 6.1 13.0 0.00 0.00 0.00 30 1007.1
20260507220037 68 316 6.1 21.7 0.00 0.00 0.00 31 1007.3
20260507214536 68 319 5.2 15.6 0.00 0.00 0.00 31 1007.3
20260507213043 69 346 7.8 13.9 0.00 0.00 0.00 31 1007.5
20260507211536 68 333 7.8 14.8 0.00 0.00 0.00 30 1007.7
20260507210033 67 322 6.1 13.9 0.00 0.00 0.00 30 1007.8
20260507204532 68 325 7.0 12.2 0.00 0.00 0.00 30 1007.8
20260507203032 68 321 6.1 15.6 0.00 0.00 0.00 31 1007.7
20260507201530 67 323 6.1 13.9 0.00 0.00 0.00 32 1007.7
20260507200029 67 317 6.1 12.2 0.00 0.00 0.00 31 1007.5
20260507194531 67 317 5.2 11.3 0.00 0.00 0.00 32 1007.6
20260507193029 66 347 4.3 11.3 0.00 0.00 0.00 33 1007.6
20260507191527 67 328 7.8 13.9 0.00 0.00 0.00 31 1007.6
20260507190026 69 355 6.1 12.2 0.00 0.00 0.00 32 1007.7
20260507184523 67 323 7.0 12.2 0.00 0.00 0.00 33 1007.9
20260507183022 68 288 7.8 13.0 0.00 0.00 0.00 36 1008.1
20260507181521 67 336 5.2 14.8 0.00 0.00 0.00 35 1008.2
20260507180019 67 338 7.8 13.0 0.00 0.00 0.00 36 1008.3
20260507174517 67 319 5.2 12.2 0.00 0.00 0.00 39 1008.5
20260507173026 65 329 5.2 20.9 0.00 0.00 0.00 40 1008.7
20260507171515 65 360 7.8 14.8 0.00 0.00 0.00 39 1008.8
20260507170013 65 304 6.1 13.0 0.00 0.00 0.00 40 1008.8
20260507164509 64 351 6.1 13.9 0.00 0.00 0.00 41 1008.7
20260507163007 64 321 7.0 13.0 0.00 0.00 0.00 41 1008.9
20260507161517 63 294 4.3 8.7 0.00 0.00 0.00 42 1008.9
20260507160006 64 335 6.1 10.4 0.00 0.00 0.00 41 1009.1
20260507154502 61 339 3.5 12.2 0.00 0.00 0.00 44 1009.2
20260507153057 58 282 3.5 7.0 0.00 0.00 0.00 46 1009.3
20260507151553 56 306 2.6 6.1 0.00 0.00 0.00 45 1009.6
20260507150050 53 288 2.6 5.2 0.00 0.00 0.00 44 1009.6
20260507144613 50 209 2.6 6.1 0.00 0.00 0.00 43 1009.2
20260507143052 49 284 0.9 2.6 0.00 0.00 0.00 42 1009.7
20260507141610 48 309 0.0 0.9 0.00 0.00 0.00 40 1009.7
20260507140049 47 16 0.0 3.5 0.00 0.00 0.00 40 1009.8
20260507134549 47 12 2.6 5.2 0.00 0.00 0.00 40 1009.8
20260507133046 46 355 1.7 3.5 0.00 0.00 0.00 49 1009.7
20260507131546 45 198 0.0 0.0 0.00 0.00 0.00 50 1009.7
20260507130045 45 198 0.0 0.9 0.00 0.00 0.00 51 1009.5
20260507124543 44 198 0.9 2.6 0.00 0.00 0.00 51 1009.6
20260507123046 44 92 0.0 7.8 0.00 0.00 0.00 50 1009.1
20260507121541 44 50 0.9 2.6 0.00 0.00 0.00 52 1008.8
20260507120041 43 50 1.7 2.6 0.00 0.00 0.00 53 1009.1
20260507114540 42 288 4.3 9.6 0.00 0.00 0.00 58 1009.0